ONEWEB-0189 (48217 NORAD) Tracking and Keplerian Element Data

This shows tracking and keplerian element data for the satellite.

Feedback or suggestion? Click here.




ElementValue
Catalog48217
NameONEWEB-0189
Epoch Orbit181
Epoch Day136.75001157
Epoch Year2021
RAAN305.778
Inclination87.4243
Eccentricity0.0009973
Argument of Perigee180.1632
Mean Anonmoly257.4361
Mean Motion15.27015286
Decay Rate-0.01389337
L11 48217U 21031H 21136.75001157 -.01389337 00000-0 -57695-1 0 9997
L22 48217 87.4243 305.7780 0009973 180.1632 257.4361 15.27015286 1816

Live tracking and technical data element details for ONEWEB-0189 (NORAD 48217). ONEWEB-0189 can be tracked NOW for your location showing map with azimuth and elevation plus other details from your city location.

Track the satellite on the map from your city or location and see movement details for azimuth, elevation, latitude, longitude, range, height, and movement on the map or in text.







IsCatalogInMostPopularTable: catalog: 48217, numindb: 7
Update: records affected: 1



GetName: 48217 ONEWEB-0189

Hit Count: updated at: Mon, 17 May 2021 16:04:28 GMT